Tracking 19279 objects as of 14-Nov-2018
HD Live streaming from Space Station
objects crossing your sky now

FAST

Track FAST now!
10-day predictions
FAST is classified as:


NORAD ID: 24285
Int'l Code: 1996-049A
Perigee: 354.7 km
Apogee: 3,450.0 km
Inclination: 83.0 °
Period: 124.8 minutes
Semi major axis: 8273 km
RCS: 1.3393 m2 (large)
Launch date: August 21, 1996
Source: United States (US)
Launch site: AIR FORCE WESTERN TEST RANGE (AFWTR)

Designed to study Earth's aurora.
aabbcc
Your satellite tracking list
Your tracking list is empty




NASA's NSSDC Master Catalog

Two Line Element Set (TLE):
1 24285U 96049A   18317.56510590 +.00000971 +00000-0 +80291-4 0  9991
2 24285 082.9603 088.8323 1870647 317.7408 029.3344 11.53668382910206
Source of the keplerian elements: AFSPC